Time,TemperatureF,DewpointF,PressureIn,WindDirection,WindDirectionDegrees,WindSpeedMPH,WindSpeedGustMPH,Humidity,HourlyPrecipIn,Conditions,Clouds,dailyrainin,SoftwareType,DateUTC
2013-05-25 00:00:00,39.0,35.0,-100.00,North,-999,-999.0,-999.0,86,-99.99,,,-99.99,,2013-05-25 04:00:00,
2013-05-25 00:53:00,39.0,35.0,-100.00,North,-999,-999.0,-999.0,86,-99.99,,,-99.99,,2013-05-25 04:53:00,
2013-05-25 02:00:00,37.0,35.0,-100.00,North,-999,-999.0,-999.0,92,-99.99,,,-99.99,,2013-05-25 06:00:00,
2013-05-25 02:52:00,37.0,35.0,-100.00,North,-999,-999.0,-999.0,92,-99.99,,,-99.99,,2013-05-25 06:52:00,
2013-05-25 03:00:00,37.0,35.0,-100.00,North,-999,-999.0,-999.0,91,-99.99,,,-99.99,,2013-05-25 07:00:00,
2013-05-25 03:52:00,37.0,35.0,-100.00,North,-999,-999.0,-999.0,91,-99.99,,,-99.99,,2013-05-25 07:52:00,
2013-05-25 04:00:00,37.0,35.0,-100.00,North,-999,-999.0,-999.0,91,-99.99,,,-99.99,,2013-05-25 08:00:00,
2013-05-25 04:52:00,37.0,35.0,-100.00,North,-999,-999.0,-999.0,91,-99.99,,,-99.99,,2013-05-25 08:52:00,
2013-05-25 05:00:00,37.0,34.0,-100.00,North,-999,-999.0,-999.0,90,-99.99,,,-99.99,,2013-05-25 09:00:00,
2013-05-25 05:53:00,37.0,34.0,-100.00,North,-999,-999.0,-999.0,90,-99.99,,,-99.99,,2013-05-25 09:53:00,
2013-05-25 06:00:00,36.0,34.0,-100.00,North,-999,-999.0,-999.0,92,-99.99,,,-99.99,,2013-05-25 10:00:00,
2013-05-25 06:52:00,36.0,34.0,-100.00,North,-999,-999.0,-999.0,92,-99.99,,,-99.99,,2013-05-25 10:52:00,
2013-05-25 07:00:00,36.0,33.0,-100.00,North,-999,-999.0,-999.0,90,-99.99,,,-99.99,,2013-05-25 11:00:00,
2013-05-25 07:52:00,36.0,33.0,-100.00,North,-999,-999.0,-999.0,90,-99.99,,,-99.99,,2013-05-25 11:52:00,
2013-05-25 08:00:00,36.0,33.0,-100.00,North,-999,-999.0,-999.0,90,-99.99,,,-99.99,,2013-05-25 12:00:00,
2013-05-25 08:52:00,36.0,33.0,-100.00,North,-999,-999.0,-999.0,90,-99.99,,,-99.99,,2013-05-25 12:52:00,
2013-05-25 09:00:00,35.0,32.0,-100.00,North,-999,-999.0,-999.0,87,-99.99,,,-99.99,,2013-05-25 13:00:00,
2013-05-25 09:52:00,35.0,32.0,-100.00,North,-999,-999.0,-999.0,87,-99.99,,,-99.99,,2013-05-25 13:52:00,
2013-05-25 10:00:00,37.0,33.0,-100.00,North,-999,-999.0,-999.0,84,-99.99,,,-99.99,,2013-05-25 14:00:00,
2013-05-25 10:52:00,37.0,33.0,-100.00,North,-999,-999.0,-999.0,84,-99.99,,,-99.99,,2013-05-25 14:52:00,
2013-05-25 11:00:00,36.0,32.0,-100.00,North,-999,-999.0,-999.0,86,-99.99,,,-99.99,,2013-05-25 15:00:00,
2013-05-25 11:53:00,36.0,32.0,-100.00,North,-999,-999.0,-999.0,86,-99.99,,,-99.99,,2013-05-25 15:53:00,
2013-05-25 12:00:00,39.0,34.0,-100.00,North,-999,-999.0,-999.0,82,-99.99,,,-99.99,,2013-05-25 16:00:00,
2013-05-25 12:52:00,39.0,34.0,-100.00,North,-999,-999.0,-999.0,82,-99.99,,,-99.99,,2013-05-25 16:52:00,
2013-05-25 13:00:00,39.0,32.0,-100.00,North,-999,-999.0,-999.0,76,-99.99,,,-99.99,,2013-05-25 17:00:00,
2013-05-25 13:52:00,39.0,32.0,-100.00,North,-999,-999.0,-999.0,76,-99.99,,,-99.99,,2013-05-25 17:52:00,
2013-05-25 14:00:00,42.0,31.0,-100.00,North,-999,-999.0,-999.0,66,-99.99,,,-99.99,,2013-05-25 18:00:00,
2013-05-25 14:52:00,42.0,31.0,-100.00,North,-999,-999.0,-999.0,66,-99.99,,,-99.99,,2013-05-25 18:52:00,
2013-05-25 15:00:00,44.0,33.0,-100.00,North,-999,-999.0,-999.0,64,-99.99,,,-99.99,,2013-05-25 19:00:00,
2013-05-25 15:52:00,44.0,33.0,-100.00,North,-999,-999.0,-999.0,64,-99.99,,,-99.99,,2013-05-25 19:52:00,
2013-05-25 16:00:00,47.0,34.0,-100.00,North,-999,-999.0,-999.0,61,-99.99,,,-99.99,,2013-05-25 20:00:00,
2013-05-25 16:52:00,47.0,34.0,-100.00,North,-999,-999.0,-999.0,61,-99.99,,,-99.99,,2013-05-25 20:52:00,
2013-05-25 17:00:00,44.0,34.0,-100.00,North,-999,-999.0,-999.0,67,-99.99,,,-99.99,,2013-05-25 21:00:00,
2013-05-25 17:53:00,44.0,34.0,-100.00,North,-999,-999.0,-999.0,67,-99.99,,,-99.99,,2013-05-25 21:53:00,
2013-05-25 18:00:00,46.0,35.0,-100.00,North,-999,-999.0,-999.0,66,-99.99,,,-99.99,,2013-05-25 22:00:00,
2013-05-25 18:52:00,46.0,35.0,-100.00,North,-999,-999.0,-999.0,66,-99.99,,,-99.99,,2013-05-25 22:52:00,
2013-05-25 19:00:00,47.0,36.0,-100.00,North,-999,-999.0,-999.0,65,-99.99,,,-99.99,,2013-05-25 23:00:00,
2013-05-25 19:52:00,47.0,36.0,-100.00,North,-999,-999.0,-999.0,65,-99.99,,,-99.99,,2013-05-25 23:52:00,
2013-05-25 20:00:00,47.0,35.0,-100.00,North,-999,-999.0,-999.0,64,-99.99,,,-99.99,,2013-05-26 00:00:00,
2013-05-25 20:52:00,47.0,35.0,-100.00,North,-999,-999.0,-999.0,64,-99.99,,,-99.99,,2013-05-26 00:52:00,
2013-05-25 21:00:00,51.0,37.0,-100.00,North,-999,-999.0,-999.0,58,-99.99,,,-99.99,,2013-05-26 01:00:00,
2013-05-25 21:52:00,51.0,37.0,-100.00,North,-999,-999.0,-999.0,58,-99.99,,,-99.99,,2013-05-26 01:52:00,
2013-05-25 22:00:00,48.0,36.0,-100.00,North,-999,-999.0,-999.0,63,-99.99,,,-99.99,,2013-05-26 02:00:00,
2013-05-25 22:52:00,48.0,36.0,-100.00,North,-999,-999.0,-999.0,63,-99.99,,,-99.99,,2013-05-26 02:52:00,
2013-05-25 23:00:00,45.0,37.0,-100.00,North,-999,-999.0,-999.0,72,-99.99,,,-99.99,,2013-05-26 03:00:00,
2013-05-25 23:53:00,45.0,37.0,-100.00,North,-999,-999.0,-999.0,72,-99.99,,,-99.99,,2013-05-26 03:53:00,